#timestamp,LO_Frequency,Hit,StdDev 
1581167375.4,286047007.5,P
1581167395.3,286047005.3,P
1581167415.1,286047005.2,P
1581167416.0,286047005.2,Y
1581167435.8,286046998.6,P
1581167455.7,286046999.0,N
1581167475.5,286046998.4,N
1581167495.3,286047001.1,N
1581167515.2,286046999.5,N
1581167535.0,286046997.1,N
1581167535.9,286046997.1,N
1581167555.8,286046997.2,N
1581167575.6,286046997.8,N
1581167595.4,286046995.8,N
1581167615.3,286046996.2,N
1581167635.1,286046996.3,N
1581167655.9,286046995.8,N
1581167675.7,286046998.0,N
1581167695.5,286046995.3,N
1581167715.4,286046995.7,N
1581167735.2,286046995.2,N
1581167755.0,286046993.4,N
1581167755.9,286046993.4,N
1581167775.8,286046995.2,N
1581167795.6,286046996.0,N
1581167815.5,286046994.8,N
1581167835.3,286046994.4,N
1581167855.1,286046992.2,Y
1581167875.9,286046996.1,P
1581167895.7,286046995.6,P
1581167915.6,286046995.1,P
1581167935.4,286046995.3,Y
1581167955.2,286047000.7,P
1581167975.1,286046998.5,N
1581167976.0,286046998.5,N
1581167995.8,286046998.3,N
1581168015.6,286047000.6,N
1581168035.5,286047001.2,N
1581168055.3,286047001.1,N
1581168075.2,286047001.0,N
1581168095.9,286047001.2,N
1581168115.7,286046998.2,N
1581168135.6,286047001.1,N
1581168155.4,286046998.5,N
1581168175.2,286047000.5,N
1581168195.1,286047000.6,N
1581168196.0,286047000.6,N
1581168215.8,286046998.7,N
1581168235.7,286046998.3,N
1581168255.5,286046999.5,N
1581168275.3,286046998.8,N
1581168295.2,286046998.4,N
1581168315.0,286046998.3,N
1581168315.9,286046998.3,N
1581168335.7,286046998.8,N
1581168355.6,286046998.2,N
1581168375.4,286047000.6,N
1581168395.3,286047000.0,N
1581168415.1,286046999.7,N
1581168435.8,286047002.3,N
1581168455.7,286047002.2,N
1581168475.5,286047001.5,N
1581168495.4,286047002.8,N
1581168515.2,286047001.8,N
1581168535.0,286047002.1,N
1581168535.9,286047002.1,N
1581168555.8,286047001.9,N
1581168575.6,286047002.4,N
1581168595.4,286047004.4,N
1581168615.3,286047001.9,N
1581168635.1,286047001.9,N
1581168655.9,286047004.3,N
1581168675.7,286047001.4,N
1581168695.5,286047004.1,N
1581168715.4,286047003.4,N
1581168735.2,286047005.5,N
1581168755.1,286047005.3,N
1581168756.0,286047005.3,N
1581168775.8,286047005.4,N
1581168795.6,286047007.2,Y
1581168815.5,286047007.4,P
1581168835.3,286047008.0,N
1581168855.2,286047009.9,P
1581168875.9,286047011.5,Y
1581168895.7,286047003.6,P
1581168915.6,286047006.0,P
1581168935.4,286047003.7,N
1581168955.2,286047004.3,Y
1581168975.1,286046997.5,P
1581168976.0,286046997.5,N
1581168995.8,286046995.3,N
1581169015.7,286046993.3,N
1581169035.5,286046991.8,N
1581169055.3,286046993.0,N
1581169075.2,286046992.5,N
1581169095.0,286046993.1,N
1581169095.9,286046993.1,N
1581169115.8,286046992.9,N
1581169135.6,286046992.4,N
1581169155.4,286046994.7,N
1581169175.3,286046992.4,N
1581169195.1,286046992.4,N
1581169215.8,286046992.4,N
1581169235.7,286046992.9,N
1581169255.5,286046992.3,N
1581169275.4,286046994.8,N
1581169295.2,286046992.9,N
1581169315.0,286046992.4,N
1581169315.9,286046992.4,N
1581169335.8,286046992.6,N
1581169355.6,286046992.4,N
1581169375.4,286046990.2,Y
1581169395.3,286046999.2,P
1581169415.1,286046998.3,N
1581169435.9,286046998.9,N
1581169455.7,286046999.4,N
1581169475.5,286046998.8,N
1581169495.4,286047001.0,N
1581169515.2,286046999.7,N
1581169535.0,286047001.0,N
1581169535.9,286047001.0,N
1581169555.8,286047001.1,N
1581169575.6,286047000.2,N
1581169595.5,286047002.0,N
1581169615.3,286046999.7,N
1581169635.1,286047002.7,N
1581169655.9,286047002.4,N
1581169675.7,286047002.7,N
1581169695.5,286047002.7,N
1581169715.4,286047000.2,N
1581169735.2,286047002.7,N
1581169755.1,286047002.0,N
1581169756.0,286047002.0,N
1581169775.8,286047002.0,N
1581169795.6,286047002.1,N
1581169815.5,286047002.5,N
1581169835.3,286047001.7,N
1581169855.2,286047004.3,N
1581169875.9,286047004.1,N
1581169895.7,286047003.7,N
1581169915.6,286047003.5,N
1581169935.4,286047005.3,N
1581169955.2,286047003.7,N
1581169975.1,286047004.2,N
1581169976.0,286047004.2,N
1581169995.8,286047001.6,N
1581170015.7,286047002.6,N
1581170035.5,286046999.8,N
1581170055.3,286047004.3,N
1581170075.2,286047001.9,N
1581170095